Terminal Aerodrome Forecast
Issued by NWS

Home | Current Version | Previous Version | Text Only | Print | Product List | Glossary On
Versions: 1 2 3 4 5 6 7 8 9 10 11 12 13
000
FTUS45 KRIW 041739
TAFJAC
TAF
KJAC 041739Z 0418/0518 21013KT 1 1/2SM -SN SCT007 OVC015
      WS020/25035KT
     FM042000 21017G25KT 1SM -SN BLSN OVC008 WS017/24045KT
     FM051000 22014G20KT 2SM -SHSN SCT009 OVC016
     FM051600 24012KT P6SM VCSH SCT015 BKN025
      AMD LTD TO CLD VIS AND WIND=

USA.gov is the U.S. government's official web portal to all federal, state and local government web resources and services.